Wind_Speed
37 37 37 36 36 35 34 33 33 33 34 31 29 28 27 27 26 23 24 25 23 23 26 24 23 27 30 30 27 26 27 30 29 26 24 26 28 28 28 28 28 26 23 22 21 21 20 21 21 19 16 17 16 11 11 14 16 19 23 25 26 24 19 19 21 19 18 21 23 24 26 32 37 35 35 38 37 38 37 28 28 33 31 33 29 21 22
37 37 37 36 36 35 34 32 32 32 32 32 30 28 27 27 27 23 22 24 22 23 23 20 19 22 24 24 25 25 25 26 25 24 23 25 25 26 26 26 27 27 24 23 23 22 21 20 21 21 20 17 18 18 16 13 12 14 18 20 24 26 24 21 19 15 15 18 19 22 25 27 34 36 35 37 38 38 38 34 32 33 35 35 28 21 25
37 37 37 36 36 35 34 32 31 30 30 29 29 28 26 25 25 21 19 19 19 21 20 17 18 19 18 20 21 22 24 25 24 23 23 23 22 23 24 23 24 25 24 24 24 23 22 19 16 17 20 18 18 21 22 18 13 14 17 18 20 23 24 25 22 15 13 15 17 22 26 27 30 33 35 37 38 38 37 35 34 32 32 36 34 28 29
36 36 35 35 35 34 33 32 31 29 28 27 26 26 25 23 22 19 15 16 18 19 18 18 19 18 17 19 18 18 21 22 22 24 25 25 23 21 20 20 21 23 24 24 24 23 24 21 17 14 15 16 16 20 25 23 17 16 19 20 18 17 20 25 27 26 22 20 20 21 23 25 28 31 34 36 37 39 38 36 37 34 28 32 38 34 31
35 34 33 33 32 32 31 30 30 29 27 26 25 25 22 21 19 16 14 16 16 14 14 16 18 16 16 17 16 15 16 16 16 19 23 25 25 23 21 20 21 21 23 24 23 22 22 23 22 19 16 15 14 17 25 26 22 20 19 19 18 16 18 22 26 30 29 26 24 23 22 24 26 28 32 34 33 36 41 41 41 37 28 28 34 34 34
33 31 30 28 27 27 27 27 27 27 26 24 24 23 20 18 18 16 16 18 15 14 16 18 19 18 16 17 17 16 16 15 14 15 17 20 23 24 23 23 24 23 21 22 22 22 22 23 25 23 21 19 17 17 21 22 22 21 17 16 17 18 20 22 23 27 30 29 28 27 26 25 25 26 28 32 33 34 38 41 41 40 35 30 27 30 35
30 29 28 26 25 25 24 24 25 26 26 23 21 22 20 18 18 17 18 21 21 20 20 20 22 21 19 19 19 17 17 17 16 14 13 16 20 23 24 23 23 24 23 22 21 20 20 21 22 22 21 21 22 21 20 19 21 21 18 16 17 19 20 21 22 24 28 30 30 31 31 30 29 29 29 30 33 35 37 38 38 40 42 37 29 29 33
29 28 27 26 25 24 24 23 24 24 24 22 20 21 21 19 18 18 20 23 23 22 22 22 23 24 23 23 21 19 18 17 17 16 15 15 15 18 21 21 20 21 25 27 25 22 20 17 16 16 17 18 20 21 19 18 20 21 20 18 18 20 19 17 18 22 25 29 32 32 33 34 32 33 33 32 33 34 36 37 37 38 40 39 35 34 35
27 26 26 26 25 25 24 23 23 22 23 23 21 20 21 22 22 21 23 24 22 21 21 21 22 23 23 22 20 19 17 16 19 22 22 19 15 12 16 19 20 19 20 22 22 20 18 17 15 14 15 16 16 17 15 14 16 19 20 19 19 20 19 15 15 18 21 25 30 32 34 35 36 36 35 34 35 35 35 35 35 36 37 37 38 40 39
24 24 24 24 24 25 25 23 23 23 22 22 22 21 20 22 24 22 22 24 24 22 21 20 22 23 21 18 17 17 16 18 23 25 23 22 20 17 17 19 21 19 16 14 16 19 21 22 21 21 22 22 21 21 18 16 15 17 19 20 19 19 19 17 15 16 17 18 21 28 31 30 32 36 35 34 35 35 35 35 34 33 33 33 36 38 35
23 23 22 22 21 23 24 23 23 23 23 22 22 22 20 21 23 21 21 24 23 19 18 19 20 21 19 17 19 19 18 20 23 23 22 23 25 26 24 21 21 20 17 16 20 24 26 26 25 26 26 26 26 26 24 22 21 19 18 19 20 19 19 17 15 15 16 13 13 19 21 21 25 31 33 35 36 36 36 37 36 34 33 31 30 28 26
23 23 22 21 20 20 21 22 22 23 23 22 23 22 20 21 22 20 20 22 20 16 17 18 17 17 16 17 19 21 21 21 21 23 25 25 25 27 27 26 25 22 20 23 25 24 23 23 22 22 24 25 25 26 27 27 26 24 21 19 18 19 20 17 14 15 15 13 12 13 15 20 25 26 28 32 35 36 36 36 36 35 34 33 32 28 24
23 23 22 21 21 20 20 20 21 22 22 22 22 22 20 20 21 19 19 23 22 17 16 18 18 17 17 18 19 21 23 23 23 24 26 26 24 25 26 27 28 26 24 26 25 21 20 20 18 18 21 23 23 25 27 28 27 27 27 24 20 19 21 18 15 15 14 13 13 12 13 20 24 24 25 26 27 30 33 34 35 35 34 33 33 31 28
23 23 22 21 20 20 20 19 19 21 21 22 21 21 19 19 19 18 18 21 21 17 16 18 17 16 16 16 17 18 21 23 24 24 25 26 25 25 26 27 28 27 27 26 24 21 18 17 16 19 20 20 21 24 27 27 27 27 28 28 25 21 21 20 17 16 14 12 12 13 16 20 23 23 22 22 23 26 29 31 32 32 33 33 32 32 29
23 22 21 20 19 19 19 19 19 20 20 21 21 20 19 19 19 18 17 19 20 20 18 18 16 14 14 15 15 16 17 19 21 22 23 26 27 26 26 28 29 27 26 24 23 20 17 15 17 19 21 23 23 23 23 23 25 27 27 26 25 23 21 22 21 17 12 9 8 9 13 16 18 18 18 19 22 26 28 30 30 28 30 33 34 33 32
23 21 20 19 19 19 18 18 18 19 19 20 20 20 19 19 19 19 18 18 21 21 17 13 13 15 18 19 17 15 14 14 16 18 19 22 26 27 27 28 29 27 25 23 20 18 16 18 20 20 21 25 24 21 21 23 22 24 25 23 23 23 22 23 24 20 17 12 6 6 11 14 12 13 15 15 17 21 23 26 30 32 32 33 33 32 31
21 20 19 18 18 18 18 18 18 18 19 19 19 19 19 19 19 19 19 20 22 23 18 14 13 13 15 16 14 11 12 13 13 14 14 17 22 26 26 27 27 26 24 22 20 19 18 18 20 21 21 23 24 22 22 23 22 23 24 23 22 22 22 23 24 24 23 20 12 8 14 18 15 14 16 16 15 17 18 18 23 30 34 35 34 32 29
19 19 18 17 17 17 17 17 17 18 18 19 19 19 18 19 19 19 20 20 22 23 19 16 17 16 14 15 13 12 14 14 12 12 14 15 18 22 24 24 23 22 22 22 20 19 20 20 21 22 21 20 22 22 22 24 24 24 25 24 23 22 23 24 25 25 26 25 19 14 14 18 18 19 21 20 16 15 17 19 21 24 27 30 33 32 29
18 18 17 17 17 17 17 17 17 17 17 17 18 18 18 18 19 19 19 19 21 22 19 16 18 19 17 17 19 18 17 16 13 13 12 10 12 17 20 21 21 19 20 22 22 19 18 20 21 20 19 20 22 21 21 23 24 25 26 26 25 24 23 24 25 25 24 24 22 16 13 15 18 20 22 20 15 13 16 22 25 24 23 26 30 32 31
17 18 17 17 17 17 17 17 16 16 16 16 17 17 16 17 18 18 19 18 19 23 21 18 20 21 17 17 19 18 17 16 13 11 9 9 12 14 13 15 20 21 19 20 21 18 17 19 20 18 18 22 22 19 19 20 21 24 27 27 26 25 24 24 26 25 22 20 18 13 11 13 15 16 17 15 14 17 19 23 26 27 26 27 30 33 33
17 17 16 16 17 17 17 16 15 16 16 16 16 16 15 16 16 16 16 17 20 23 22 18 19 20 18 18 19 19 19 18 14 13 13 12 13 12 11 13 19 22 20 18 17 14 14 17 18 19 22 24 21 17 18 19 18 21 24 22 22 24 25 23 25 25 22 20 19 17 19 22 18 18 21 19 20 24 24 22 23 25 26 28 32 35 36
16 16 16 16 17 17 16 15 15 15 15 15 16 15 14 14 14 15 15 17 20 23 22 20 20 20 19 19 20 20 20 20 18 19 18 16 15 14 13 15 18 19 20 19 16 15 15 14 13 14 18 21 20 17 17 18 17 19 22 20 17 20 23 22 23 28 27 23 22 21 23 24 20 22 25 22 23 26 24 20 19 21 23 26 29 33 34
14 14 15 16 16 16 15 14 14 14 14 15 15 14 13 13 14 15 15 15 18 21 22 21 20 17 16 16 18 20 22 22 21 19 17 16 15 13 12 14 17 18 17 18 17 15 14 13 12 11 11 14 15 15 15 17 15 15 20 20 15 17 23 23 25 32 30 22 19 19 19 19 19 20 19 19 19 21 21 19 19 20 20 24 28 32 34
13 13 14 15 15 15 14 13 13 13 13 13 13 13 13 13 14 14 14 14 17 20 19 15 13 11 11 12 15 18 22 23 20 18 17 16 14 11 10 13 16 17 16 16 16 15 14 14 14 11 9 10 12 12 12 13 12 12 15 16 15 17 20 19 22 27 24 16 14 14 13 14 16 13 16 19 18 17 18 18 20 22 23 26 31 33 36
11 12 13 14 14 13 12 11 11 11 12 12 12 13 13 13 14 15 14 15 17 19 19 14 9 9 11 12 14 18 20 21 20 19 18 15 10 8 10 14 16 16 16 14 14 14 15 14 13 10 8 9 10 10 9 9 11 12 12 12 14 16 16 14 17 21 17 14 14 13 11 15 22 26 28 27 28 29 29 29 29 30 30 32 33 34 35
11 12 13 12 12 11 10 10 9 9 10 11 12 13 13 13 15 15 15 16 17 19 21 17 9 7 10 12 14 18 21 21 18 15 14 12 11 10 11 13 14 15 14 12 11 13 13 13 13 12 10 8 8 10 11 11 12 13 11 13 17 18 16 16 17 19 19 19 19 19 23 29 33 33 32 31 30 31 32 33 32 31 29 28 27 28 31
10 11 11 10 10 9 8 8 8 8 9 10 11 12 12 13 15 16 16 16 16 15 16 13 6 5 9 11 13 16 18 16 13 12 12 13 13 11 10 10 9 10 12 12 11 12 13 13 14 13 11 10 9 10 13 15 14 13 15 19 21 20 19 19 18 17 21 24 24 24 27 30 31 30 30 31 31 29 29 30 30 30 27 23 21 21 23
9 9 9 9 8 7 6 6 6 7 8 9 10 11 11 12 14 15 15 15 14 14 15 14 7 4 6 8 10 12 12 11 11 11 12 12 12 11 10 10 8 8 10 11 11 10 11 13 14 12 12 12 10 10 12 16 17 17 18 20 21 22 23 23 20 17 19 23 27 26 26 28 31 29 25 26 28 27 27 28 28 29 27 24 21 17 16
8 8 8 8 7 6 6 6 6 7 8 9 9 10 10 10 10 10 10 11 11 11 13 12 6 2 5 6 8 9 8 9 11 12 12 12 12 11 10 9 8 8 10 11 10 9 9 11 12 11 12 14 10 9 12 16 17 16 16 16 20 24 26 25 25 23 21 25 29 29 29 32 32 25 17 18 22 24 25 25 25 25 24 23 21 17 14
7 7 7 6 6 6 6 6 7 8 8 9 8 8 7 6 6 6 6 7 8 8 9 8 3 3 7 7 7 7 8 10 12 12 12 12 11 10 9 8 8 8 8 9 9 9 8 8 7 7 11 14 10 8 10 13 14 14 15 16 20 24 25 26 27 25 24 28 31 32 34 35 27 16 11 11 13 16 18 17 16 16 15 14 14 13 12
6 6 5 6 6 6 7 7 8 8 8 7 5 4 5 4 3 5 6 6 6 5 5 6 3 4 8 8 8 8 9 12 14 14 14 14 12 9 9 7 7 6 6 7 8 9 8 7 4 5 9 13 10 6 7 9 12 15 17 18 20 24 25 27 28 26 26 32 36 36 37 32 20 15 18 17 12 10 10 8 7 9 9 8 8 10 12
6 5 6 7 8 8 8 8 7 7 6 5 3 4 4 2 3 5 7 7 6 5 6 8 5 5 10 9 9 8 10 14 15 15 15 14 11 9 8 6 6 6 5 5 7 9 10 7 3 2 6 8 8 7 7 8 11 15 16 16 18 21 22 25 27 27 28 33 35 33 31 26 19 17 21 23 19 15 13 13 13 11 10 10 10 11 11
6 6 7 8 7 6 6 5 4 4 3 2 3 4 3 1 4 6 8 9 8 7 8 8 6 3 6 9 9 10 12 14 14 12 12 11 9 8 8 7 5 5 5 5 6 8 10 8 3 2 4 5 6 6 7 8 8 9 9 8 11 15 18 20 23 26 29 34 35 31 26 25 24 22 22 22 21 19 19 18 17 17 17 15 14 14 13
7 8 8 7 6 5 5 3 3 2 1 1 2 4 2 1 5 7 9 10 10 9 9 8 8 5 5 10 9 8 12 15 14 12 11 10 9 9 10 9 7 5 5 8 8 8 7 5 3 3 5 5 4 5 9 11 10 8 7 7 8 11 14 16 19 22 25 29 31 30 27 26 27 26 24 23 23 23 22 18 15 14 14 12 10 11 12
9 9 8 7 7 6 5 4 4 4 4 4 4 4 1 3 5 7 8 9 9 9 8 7 6 5 9 11 8 6 9 11 10 9 9 9 9 10 11 12 9 6 7 9 8 6 6 6 5 5 5 4 5 8 12 14 15 14 13 13 13 15 18 20 20 21 22 24 27 28 28 26 25 25 23 22 22 22 21 19 15 11 7 5 5 6 6
9 8 8 8 8 8 7 6 6 6 5 4 4 2 1 3 5 6 6 7 8 8 7 7 6 6 7 7 6 6 8 8 9 10 10 10 12 12 12 11 9 8 10 10 5 4 7 7 5 5 5 5 7 11 14 16 17 17 18 18 19 21 24 26 25 25 26 26 27 28 26 23 20 19 18 17 17 17 16 16 14 8 3 1 4 5 5
9 9 9 9 9 9 8 7 6 5 4 4 4 3 4 4 5 5 5 8 9 9 9 10 10 8 7 7 7 7 7 8 11 12 11 12 14 14 12 10 9 11 13 10 7 6 8 7 5 5 7 8 9 13 17 18 18 17 17 16 16 18 22 24 23 23 24 24 24 24 24 21 19 17 18 17 15 13 12 12 10 4 2 5 7 7 9
10 10 10 10 10 10 9 7 7 6 6 5 6 6 6 6 5 6 7 9 9 9 10 12 13 11 9 8 7 6 7 9 10 10 11 13 15 14 12 10 11 12 12 10 9 11 11 8 7 9 12 14 14 16 18 19 20 19 18 16 14 14 18 19 18 17 18 19 20 19 18 16 15 14 12 11 9 6 4 4 2 4 8 9 10 12 13
11 11 11 11 10 10 10 9 9 9 9 9 9 8 7 7 7 6 8 10 11 10 11 13 14 11 8 7 5 7 11 11 9 9 12 13 12 11 11 11 11 11 11 10 10 10 12 12 11 12 15 16 18 20 21 23 23 22 20 19 19 19 20 21 20 18 18 17 16 14 11 10 10 9 8 8 8 7 7 7 8 9 11 12 13 15 16
13 13 13 12 11 11 11 11 11 11 10 10 10 8 7 7 8 7 8 10 10 9 10 12 12 9 6 6 5 9 13 10 9 11 13 11 10 9 9 10 10 10 10 11 10 10 12 13 12 13 16 17 19 22 24 23 22 21 20 20 21 22 22 22 20 18 16 15 13 12 10 10 10 10 10 10 10 11 13 14 14 15 15 15 15 15 16
13 13 13 12 12 12 11 11 11 11 10 9 9 8 8 8 8 8 8 8 6 6 8 11 10 4 5 6 7 12 14 10 10 13 12 8 9 10 9 10 11 8 7 9 11 13 14 14 13 15 18 18 19 21 21 19 19 19 19 19 20 19 19 18 17 14 11 10 9 8 8 8 9 9 10 11 11 12 14 16 17 17 17 17 17 16 16
12 12 12 12 11 11 11 10 10 10 9 8 8 9 9 8 8 8 9 8 6 6 7 10 8 5 7 7 8 13 14 11 11 11 8 7 9 10 8 8 8 8 9 12 14 15 17 16 15 16 18 18 20 21 20 17 17 18 17 17 17 17 15 14 13 11 8 5 4 4 5 7 8 9 9 10 11 11 13 14 15 15 16 16 15 15 15
11 11 11 10 10 10 11 11 10 9 9 8 8 8 8 8 7 7 6 5 6 7 7 8 7 8 9 7 8 12 12 10 10 10 8 7 10 11 10 7 5 7 11 14 14 16 18 17 15 16 17 18 20 22 21 19 17 17 16 15 14 13 12 11 10 8 6 3 1 2 4 6 8 9 9 9 9 10 10 11 11 11 12 12 11 11 11
11 11 10 9 8 9 10 11 12 12 11 10 9 8 8 8 8 6 5 4 5 6 7 7 7 9 9 7 8 11 9 8 7 8 8 6 7 9 10 8 7 10 12 14 17 20 19 17 17 18 17 17 19 21 20 18 17 17 16 14 12 10 9 8 7 6 5 4 3 2 4 5 6 7 7 6 6 7 7 7 6 6 6 6 6 6 7
12 13 13 15 15 15 14 14 14 15 15 13 10 7 6 7 8 7 7 8 8 8 9 11 11 9 9 9 8 9 7 6 6 7 7 6 5 7 10 10 11 14 15 16 19 20 19 17 18 17 16 17 20 20 18 17 17 17 16 14 13 11 9 7 7 6 6 6 5 5 4 4 4 4 4 4 5 5 5 5 5 5 5 5 6 6 7
12 14 17 22 24 23 20 19 18 18 17 16 13 9 6 7 10 10 9 9 11 12 13 14 13 9 8 9 9 8 7 7 7 7 7 6 7 11 12 11 12 14 15 15 17 19 19 19 19 17 15 16 17 17 15 15 16 15 14 14 13 12 11 10 9 9 9 9 9 8 8 7 7 6 5 5 5 5 6 6 6 6 6 7 7 8 8
11 14 18 22 24 24 23 21 20 20 20 19 18 14 9 8 11 13 12 12 14 16 16 14 11 8 8 10 11 10 9 9 9 8 6 8 12 13 11 9 10 12 14 15 18 20 20 20 19 18 17 16 15 15 15 15 14 14 13 13 13 12 12 11 11 10 10 9 9 9 9 10 10 9 8 7 6 6 5 6 6 6 7 8 8 8 9
16 18 20 22 22 23 23 22 22 22 20 18 18 17 16 14 14 15 15 15 16 17 16 14 9 7 8 10 11 10 9 9 10 10 7 8 12 11 9 9 12 14 15 17 19 19 19 20 20 19 17 16 15 15 14 14 14 13 12 12 12 11 10 10 10 9 8 8 8 8 8 8 9 9 9 8 7 6 6 6 6 7 8 8 8 8 9
18 19 21 21 22 22 21 21 22 22 20 18 18 18 18 17 16 14 12 12 14 16 17 16 12 9 9 10 10 10 9 9 9 9 7 7 10 11 11 13 15 17 18 20 21 19 18 20 20 19 17 16 16 15 13 13 12 11 11 10 10 9 9 9 9 8 7 7 6 6 7 7 7 8 8 8 7 6 6 6 6 7 8 9 9 9 9
18 19 20 21 21 20 20 20 21 21 20 19 18 16 14 13 13 12 10 10 11 13 16 17 16 12 12 13 12 12 12 12 11 11 11 12 14 17 18 18 18 19 21 22 20 18 18 19 19 18 17 16 15 14 13 13 12 11 10 10 10 9 9 9 9 9 8 8 7 7 6 6 6 6 6 6 5 5 5 5 5 6 6 7 8 8 8
19 19 19 18 18 18 19 20 21 20 20 20 20 18 16 15 14 13 11 10 11 12 13 15 15 15 17 18 17 15 16 18 18 18 19 19 20 22 23 22 21 22 23 21 19 19 18 16 16 16 16 15 14 13 13 12 12 12 11 11 10 10 9 9 9 10 10 10 10 9 8 7 7 6 6 5 4 4 4 4 5 5 5 6 6 6 6
19 17 16 15 15 16 17 17 17 17 18 20 20 18 17 17 16 14 12 11 11 10 10 10 11 14 18 20 19 17 19 22 23 23 23 24 24 24 23 22 20 20 19 18 17 17 16 14 13 14 14 13 12 11 11 10 10 10 10 10 10 10 9 9 9 10 10 10 11 12 12 11 10 8 7 6 6 6 6 5 5 6 6 6 5 5 5
Wind_Direction
303 303 302 302 301 301 300 298 298 297 296 296 295 292 289 283 277 274 273 271 266 262 259 254 250 249 248 247 246 245 244 245 245 241 236 235 236 234 233 233 232 232 232 229 228 229 234 236 232 231 232 223 221 226 212 202 202 208 214 215 212 212 214 217 223 224 221 220 219 218 216 216 221 221 217 217 218 220 224 226 226 228 231 232 235 240 236
303 302 302 302 302 302 302 301 299 299 298 298 298 295 291 288 284 281 277 273 269 263 261 259 255 253 254 254 251 248 246 245 243 238 233 231 232 231 231 231 230 229 229 229 228 227 232 239 238 234 237 235 228 228 219 197 192 206 213 210 206 206 206 209 218 224 220 219 217 212 210 213 221 222 219 219 220 221 225 227 228 232 232 229 231 237 231
301 301 300 301 301 300 300 299 298 298 297 296 295 293 291 290 288 286 280 274 267 257 251 253 257 256 256 257 255 252 250 246 240 235 231 227 228 231 231 229 227 226 227 229 229 228 229 235 239 234 234 235 230 228 221 203 197 211 208 195 195 205 207 207 212 216 211 213 212 206 204 209 218 222 221 221 221 220 222 225 227 231 231 230 232 235 231
299 299 299 299 298 297 296 296 295 293 292 290 289 289 290 288 285 284 281 269 262 259 253 251 255 258 261 265 264 258 255 252 245 240 234 229 227 230 230 225 223 222 221 224 226 226 226 228 230 227 224 223 222 225 223 212 204 210 206 197 196 209 214 210 214 221 221 218 217 212 211 214 217 220 222 223 222 222 223 225 228 229 228 231 235 236 234
300 300 299 298 297 297 295 295 293 291 289 287 285 285 286 285 282 278 273 263 252 250 251 247 248 251 256 265 265 256 255 255 249 243 238 233 230 231 230 222 218 217 216 220 225 225 225 227 229 230 227 220 218 224 224 218 215 214 214 212 208 213 219 214 217 226 229 228 226 222 222 224 223 221 221 221 222 224 226 227 229 229 230 234 235 233 231
301 301 300 297 296 297 296 295 295 294 291 287 284 283 280 276 274 266 262 261 245 227 227 231 238 246 251 258 260 258 257 254 249 248 243 235 229 229 231 225 221 220 218 221 227 226 227 230 230 231 231 227 231 234 227 222 221 219 217 218 216 219 224 220 221 229 232 232 233 230 229 229 229 227 224 222 222 223 226 229 230 231 234 237 235 230 229
300 300 299 296 294 293 292 293 295 295 294 294 288 281 275 271 269 264 259 260 255 248 246 246 250 253 253 254 256 257 258 253 250 253 248 239 230 228 230 228 226 227 225 224 228 225 225 229 228 228 229 230 233 235 231 225 221 218 219 219 216 221 226 224 227 235 236 235 236 235 234 233 231 231 231 229 227 225 227 230 232 233 236 239 239 236 235
298 297 296 294 291 289 288 288 291 291 293 296 290 281 276 271 266 264 262 261 262 263 263 261 260 258 254 255 255 254 255 256 254 248 241 239 231 226 231 233 231 232 229 227 230 229 226 228 226 221 221 224 229 232 233 228 218 215 218 219 218 222 224 221 228 238 239 236 235 236 236 235 234 233 233 232 232 229 229 230 231 232 235 237 239 240 239
299 296 294 291 287 285 285 284 286 286 287 289 288 284 279 273 268 268 267 266 264 264 264 263 264 261 257 258 259 255 252 251 249 242 234 229 220 221 235 234 228 227 222 221 227 229 226 228 228 221 216 214 215 219 222 219 216 216 213 211 217 224 223 221 228 239 240 234 233 234 235 236 236 234 230 230 231 232 231 230 229 229 232 234 235 237 238
299 297 295 293 288 284 282 280 279 279 280 283 284 284 283 279 276 275 273 269 263 260 261 261 261 261 259 257 255 252 243 239 244 246 241 232 226 231 236 225 217 218 215 215 223 223 222 225 227 226 224 220 215 211 205 201 206 213 213 212 216 221 223 222 223 238 245 238 234 234 234 236 236 232 229 228 229 231 232 232 230 229 231 232 232 235 237
299 298 297 297 293 287 282 278 275 273 274 277 279 280 283 283 280 280 278 272 266 262 262 259 258 260 260 254 251 251 247 242 244 247 244 234 228 230 231 223 218 221 223 226 227 225 226 230 231 231 230 229 227 222 217 212 207 204 207 214 217 217 220 219 219 234 243 242 243 242 237 234 233 229 228 227 227 229 230 231 230 229 230 232 233 237 238
300 298 297 296 293 290 284 278 274 272 271 272 273 275 280 281 279 280 280 274 268 261 259 258 257 258 258 254 253 255 254 247 244 243 242 237 230 228 231 232 230 229 230 231 230 230 233 235 236 237 235 232 230 227 228 227 219 209 207 210 211 212 216 218 218 228 236 238 242 244 237 234 234 233 231 228 227 230 232 234 233 230 231 233 234 236 235
298 297 296 295 292 290 286 279 273 271 270 270 269 271 275 276 273 272 274 275 272 265 260 259 257 257 260 260 256 256 253 248 245 243 242 242 233 225 227 231 232 232 232 234 235 238 240 238 235 236 235 233 234 233 232 232 227 219 214 213 212 214 217 219 219 225 233 233 229 238 250 244 238 238 236 231 228 230 234 237 236 232 231 233 234 234 233
295 295 296 295 293 290 286 280 274 271 270 269 267 267 266 264 265 266 270 272 271 267 263 262 261 262 265 262 257 255 251 246 247 246 243 243 237 228 226 229 231 232 233 236 240 242 243 240 234 231 227 224 227 231 230 227 224 219 215 216 218 217 217 218 219 220 226 233 237 251 266 258 244 239 234 226 226 228 231 237 238 234 231 232 233 235 235
292 294 295 294 292 288 285 281 276 270 268 266 265 264 261 257 258 261 265 268 271 271 266 262 262 262 259 255 253 255 251 246 247 247 244 242 239 233 230 230 229 230 232 237 240 240 238 236 231 224 215 211 214 219 218 217 217 214 212 213 214 215 216 220 220 215 213 230 251 257 261 256 241 230 225 223 227 230 232 239 241 236 231 232 236 239 238
289 291 292 293 291 288 286 283 277 271 268 266 264 261 259 256 255 257 261 263 267 270 265 257 258 260 256 251 249 255 258 252 248 247 244 243 241 236 232 232 231 230 233 238 238 236 235 233 229 224 216 210 210 208 203 200 201 204 204 204 207 213 218 221 224 222 215 215 224 243 254 254 239 230 236 239 237 235 235 238 241 238 237 238 239 239 237
287 287 289 292 293 291 288 283 278 273 269 266 264 261 258 256 253 255 258 259 261 264 262 256 260 264 260 255 251 250 251 247 245 247 243 238 237 233 231 233 234 233 235 237 237 235 233 231 230 229 224 215 210 207 200 192 186 183 185 189 197 207 212 214 219 221 217 216 220 239 252 254 258 270 277 274 265 250 235 233 240 239 238 241 241 240 235
283 283 286 292 296 293 287 282 276 273 271 267 264 260 258 255 251 251 253 255 260 267 269 264 260 254 249 253 250 237 234 238 241 246 245 237 233 231 230 230 232 235 233 233 235 236 233 231 229 228 225 218 214 211 202 193 187 181 179 184 191 197 202 207 212 215 215 217 223 237 252 257 262 279 290 288 276 252 230 229 237 235 232 235 237 237 235
280 279 284 293 298 295 287 281 276 273 271 268 263 260 257 253 249 249 252 254 259 267 270 267 262 255 248 251 252 244 244 253 254 248 250 247 233 228 224 221 222 225 226 228 231 233 233 233 230 228 228 225 220 215 206 198 194 188 186 190 193 193 195 203 210 214 213 214 220 233 254 262 263 276 289 286 265 239 229 231 233 233 232 232 230 228 228
279 279 283 290 296 295 288 281 277 273 269 265 263 261 257 253 249 250 253 255 261 268 270 266 264 263 257 254 255 250 246 250 252 249 251 247 231 219 206 206 214 216 218 225 228 228 234 236 230 227 228 225 218 213 209 204 196 188 188 193 196 194 195 201 205 206 205 207 214 223 237 247 258 279 291 277 242 233 236 233 233 236 237 231 225 221 218
281 281 283 286 291 293 289 280 274 271 268 265 263 260 256 254 253 253 255 256 262 269 273 270 265 262 258 252 251 248 242 238 238 242 246 241 230 214 188 190 207 212 214 221 223 219 224 232 229 225 225 224 218 208 204 201 193 185 187 194 200 201 200 201 200 199 201 205 206 212 225 231 245 275 282 265 237 231 233 233 236 238 236 230 224 219 215
283 281 283 286 291 293 289 279 273 271 267 264 263 262 261 259 257 258 262 266 271 275 278 276 269 261 254 248 244 243 243 240 236 238 243 240 232 222 203 194 202 209 213 218 222 216 212 216 217 215 219 221 215 205 201 202 195 187 189 194 200 205 207 205 199 199 205 208 208 215 223 226 244 272 272 256 238 232 233 237 236 233 232 228 220 213 208
285 282 284 288 292 294 289 279 274 272 267 263 263 262 262 259 258 262 267 273 281 285 284 282 276 265 251 244 242 239 237 235 233 235 242 241 234 226 210 198 203 210 212 216 222 224 218 210 206 210 223 222 210 201 203 207 199 185 188 193 196 201 207 209 207 205 206 209 213 218 220 226 248 261 245 225 223 226 227 227 221 216 217 213 203 194 188
287 284 285 289 291 293 290 281 276 273 267 264 264 261 258 255 256 262 268 272 280 287 288 283 277 266 248 237 239 239 235 234 234 231 234 236 228 213 202 200 205 212 215 217 222 223 220 212 205 211 232 231 216 208 205 205 197 175 175 189 198 197 197 200 207 209 203 194 202 218 229 233 233 213 180 170 171 174 178 179 175 172 173 173 169 166 165
292 289 291 294 294 292 290 286 280 272 263 258 258 257 257 258 261 264 267 271 277 284 287 281 269 261 250 237 237 241 239 237 233 227 229 232 213 185 191 199 204 211 217 221 220 215 214 208 194 195 221 229 224 218 202 197 201 187 170 177 192 191 184 185 199 206 199 182 187 200 199 184 172 158 147 141 138 138 140 141 141 142 146 148 147 147 150
297 297 299 302 301 298 294 287 277 266 259 256 256 258 260 262 266 268 269 272 276 280 282 281 280 269 254 239 235 239 239 237 232 227 229 221 193 181 191 195 200 211 220 224 220 211 212 207 186 179 190 202 214 218 207 198 197 191 185 190 188 181 178 182 192 200 197 184 173 170 166 160 156 153 149 144 141 141 140 139 138 136 135 136 139 142 145
306 307 308 308 306 303 297 287 274 264 262 262 263 267 269 269 272 276 277 277 279 279 279 282 291 280 262 249 239 238 238 236 230 221 216 204 189 188 195 191 192 209 222 231 228 216 216 216 199 182 174 177 195 214 210 201 193 191 202 203 190 178 180 185 186 192 196 190 180 174 172 164 156 155 155 149 144 143 141 141 143 143 140 139 141 141 143
316 316 316 312 305 300 294 288 279 271 272 275 277 278 278 278 280 282 280 277 274 271 276 287 296 273 251 243 235 233 232 227 216 204 196 190 185 188 194 195 198 213 229 242 240 222 217 216 204 179 154 158 183 205 204 201 201 204 209 206 193 185 186 187 186 186 190 190 185 186 192 184 168 161 159 153 148 146 144 143 144 144 144 147 149 147 147
320 315 315 315 311 302 294 292 292 289 289 292 292 291 290 287 286 286 280 276 272 268 278 295 307 184 191 209 216 217 214 205 196 188 181 178 176 176 181 190 203 219 235 248 246 229 218 213 205 184 153 151 174 199 195 195 202 209 210 207 200 196 193 193 194 192 190 190 188 189 195 190 176 166 166 160 151 149 149 148 146 145 146 149 152 155 157
327 319 316 314 311 307 300 297 298 298 298 300 301 300 293 283 289 304 299 288 288 284 288 306 323 168 182 197 200 198 194 185 177 174 174 173 168 166 175 191 208 220 235 247 240 224 215 211 207 183 157 156 169 190 185 182 190 200 203 205 206 204 201 199 198 196 194 196 194 191 191 187 183 192 209 186 155 150 152 150 149 153 158 161 168 178 180
331 324 318 316 315 314 312 307 303 301 303 306 301 282 263 251 277 322 325 318 312 304 305 325 355 136 158 175 186 185 177 170 168 168 169 169 171 176 183 195 205 207 222 236 226 210 207 208 197 171 168 169 168 171 171 169 176 188 197 203 207 208 206 202 199 196 194 194 193 192 192 192 196 214 218 214 212 203 190 185 182 181 185 192 201 208 206
327 318 318 323 326 325 321 317 314 312 308 297 252 223 230 258 323 339 344 348 346 344 346 348 7 115 138 159 181 179 164 163 170 173 167 164 172 183 183 189 197 190 194 217 211 190 183 177 146 142 181 169 138 125 143 155 168 183 193 200 206 209 209 206 202 196 190 189 190 194 197 200 204 207 208 215 231 240 233 229 228 225 231 242 241 231 220
346 342 338 340 343 345 346 341 330 321 305 273 216 192 191 349 15 18 17 13 9 7 4 1 9 76 133 151 164 172 170 171 175 172 158 152 166 178 175 177 180 166 166 184 180 164 161 158 139 137 168 147 112 113 134 141 153 175 185 188 200 209 211 211 208 200 194 193 196 200 202 203 205 207 208 212 223 234 240 243 241 237 237 242 244 239 236
17 9 3 5 7 8 10 6 355 8 34 103 153 158 164 21 20 22 16 12 13 15 14 11 13 33 124 138 140 164 180 175 171 167 157 152 161 169 169 170 164 150 166 177 164 142 135 141 148 152 146 135 123 123 124 126 134 142 138 137 160 181 190 194 197 198 197 196 198 202 206 207 209 212 214 215 220 228 237 241 237 226 219 219 226 233 238
25 18 17 21 23 27 35 43 58 76 87 102 128 145 142 8 12 8 4 9 15 14 6 4 23 82 123 121 117 163 181 164 156 162 157 150 158 164 162 160 157 151 161 165 160 162 168 159 139 134 131 124 128 128 127 135 142 138 129 131 141 153 161 166 172 179 184 188 190 192 193 196 198 200 203 207 210 214 221 225 219 204 185 180 204 227 239
25 27 34 39 41 44 47 50 67 89 99 95 100 111 57 24 11 357 1 16 24 25 19 18 44 91 104 85 93 146 157 137 144 160 156 151 161 158 143 139 144 152 158 161 167 185 174 150 124 118 115 107 121 132 134 139 142 139 136 138 142 146 149 150 150 154 162 171 175 172 164 160 163 167 170 172 177 183 192 195 187 169 140 185 231 245 255
33 35 38 43 47 48 46 46 55 71 76 64 56 53 53 46 29 12 18 29 37 45 44 35 39 56 60 59 88 129 139 135 150 159 153 151 159 152 135 134 156 163 162 167 174 160 143 131 128 124 105 100 119 134 136 135 136 136 135 135 139 146 149 145 141 142 146 151 154 151 144 137 136 140 143 144 147 155 161 158 148 137 301 286 273 268 265
38 35 37 42 44 42 43 44 45 45 48 54 62 65 64 63 55 39 34 41 50 55 48 37 37 47 60 69 85 120 137 138 145 153 152 151 154 153 148 158 175 171 160 157 159 145 125 116 129 124 108 104 112 118 121 125 127 127 128 129 131 142 149 148 142 139 138 135 131 131 133 133 128 125 122 117 111 113 123 114 76 325 299 289 283 277 271
50 48 51 54 51 49 52 54 56 59 62 66 73 76 70 65 66 56 47 51 54 50 39 31 27 35 60 77 95 134 140 138 140 148 150 149 150 154 160 167 172 168 153 148 152 139 117 111 119 118 111 112 114 111 112 116 117 115 115 115 112 114 121 125 122 118 115 108 98 89 83 81 76 58 37 30 22 360 346 344 331 310 297 291 284 278 274
57 60 65 66 64 63 62 60 60 64 65 65 70 76 71 63 65 63 54 50 45 37 32 22 11 15 54 72 94 130 138 142 143 136 136 142 148 152 158 164 163 156 147 144 145 133 120 119 120 117 117 122 122 117 115 116 116 113 109 106 102 98 97 97 96 95 91 82 68 52 40 35 28 11 357 354 349 335 329 326 318 308 300 294 287 283 281
57 60 62 62 60 58 55 54 57 63 66 66 66 65 62 59 57 57 55 48 36 26 21 9 358 15 80 75 93 120 129 137 139 128 123 138 150 145 150 161 158 145 137 141 137 126 121 120 118 121 127 132 129 121 116 114 115 115 111 107 104 102 97 93 91 87 82 70 53 32 16 7 358 344 335 332 326 320 317 314 310 305 303 300 297 295 294
52 54 54 52 52 53 52 55 58 59 59 60 57 54 55 54 49 48 48 45 41 37 14 357 2 67 95 88 107 124 127 133 138 131 126 147 151 142 145 159 153 138 146 155 147 130 120 117 117 126 136 139 132 123 117 116 115 113 109 106 105 105 106 107 107 103 98 83 45 8 344 330 321 317 315 312 309 307 304 300 297 296 296 296 297 298 298
41 44 42 40 44 49 51 52 53 52 52 56 55 51 46 40 35 37 36 28 35 39 15 358 22 71 80 84 122 136 132 128 131 129 131 156 165 155 145 141 141 149 154 150 135 121 114 114 120 131 138 141 136 126 120 120 120 116 110 108 104 100 99 100 101 103 104 96 33 331 320 314 311 311 310 307 304 301 296 292 291 291 290 290 294 298 300
34 35 32 32 41 53 57 55 53 52 53 54 52 47 37 25 22 34 46 38 37 40 30 30 59 83 84 96 137 151 139 119 120 128 132 151 170 158 140 131 139 146 138 122 114 114 114 117 125 130 131 133 132 124 117 118 120 118 115 115 111 103 95 84 72 67 64 55 32 352 330 320 311 309 310 312 313 313 313 314 317 318 317 318 323 325 323
44 45 46 48 51 56 60 60 56 54 53 49 42 37 33 28 32 51 72 66 52 50 53 58 67 82 92 103 131 151 140 110 105 120 125 129 137 133 130 133 139 135 124 111 110 113 115 121 128 129 125 124 124 119 113 111 110 108 108 108 106 102 95 81 66 54 47 44 42 34 20 0 342 337 340 342 346 354 1 6 12 18 19 14 11 9 8
54 55 55 54 52 52 55 56 53 51 51 51 45 35 29 40 50 61 75 69 52 45 50 55 58 66 85 95 102 111 107 91 82 89 103 122 133 130 129 132 131 123 116 112 113 116 122 130 131 127 124 127 127 121 111 101 95 93 92 90 88 87 83 75 68 62 56 54 53 48 44 41 36 31 31 31 33 37 39 36 33 31 28 24 23 24 28
69 63 57 54 52 52 54 56 52 46 44 46 46 39 33 48 59 58 58 58 53 47 46 52 59 69 86 90 88 85 82 79 74 73 91 126 133 126 121 118 112 107 110 118 123 126 131 135 133 126 124 126 125 117 106 95 87 87 86 82 80 79 76 72 70 66 62 61 60 56 53 51 48 47 50 53 55 55 48 37 31 27 25 27 31 33 35
72 66 60 57 55 55 57 59 56 49 44 44 44 40 37 43 53 54 50 50 53 51 50 53 67 92 103 99 95 94 92 84 69 57 69 118 129 121 110 107 105 105 114 126 130 130 132 133 131 128 125 121 115 109 102 94 89 87 84 79 78 76 71 70 72 69 63 59 56 53 52 51 49 50 54 54 54 54 47 39 36 36 36 37 38 38 38
64 64 63 61 58 55 55 53 50 47 46 46 44 41 38 39 45 49 49 50 54 56 55 56 67 96 119 117 107 102 99 88 69 55 63 101 116 114 109 107 107 112 123 133 134 132 131 130 127 123 120 117 112 106 99 95 93 89 83 80 80 77 72 70 69 64 60 56 50 45 43 40 40 43 45 44 45 47 45 43 43 41 39 37 35 34 34
60 62 61 58 54 51 53 53 51 51 53 54 51 49 49 49 49 52 54 54 56 57 52 49 54 77 109 122 115 100 87 82 80 80 83 91 101 108 108 105 107 119 132 136 133 130 130 130 127 122 118 114 110 105 101 98 95 89 83 79 76 72 70 69 64 59 54 49 43 39 35 32 31 31 30 30 33 33 28 27 29 28 25 23 22 21 22
54 55 55 52 49 48 52 52 50 49 51 51 49 47 49 53 55 58 61 62 58 51 45 45 53 72 92 102 102 95 88 85 84 81 77 78 85 95 100 103 112 127 135 136 132 132 133 132 126 121 118 113 109 105 102 97 91 84 79 74 70 68 67 64 58 54 50 45 43 41 35 28 26 27 22 18 18 17 10 5 5 4 2 0 359 359 0
50 52 52 51 49 51 53 53 50 48 49 49 46 43 44 48 52 55 60 66 67 59 50 55 67 76 82 84 83 84 85 85 81 75 73 75 80 87 92 98 107 118 124 126 128 132 134 132 126 123 120 117 114 110 105 100 93 84 75 68 63 60 56 51 47 47 45 42 39 37 34 31 29 26 17 9 7 4 359 354 353 351 346 341 338 335 331
Height
3056 3055 3053 3052 3050 3050 3049 3048 3047 3045 3044 3045 3045 3045 3045 3044 3044 3044 3044 3043 3044 3044 3042 3043 3044 3042 3041 3042 3042 3043 3042 3042 3043 3046 3049 3050 3050 3051 3050 3050 3052 3054 3055 3057 3057 3058 3059 3059 3061 3062 3063 3064 3066 3066 3066 3067 3070 3073 3074 3076 3078 3080 3080 3081 3081 3081 3082 3084 3085 3087 3089 3091 3092 3091 3093 3096 3096 3097 3098 3099 3103 3102 3099 3105 3104 3097 3100
3051 3050 3048 3047 3046 3045 3044 3043 3042 3041 3040 3040 3040 3041 3040 3039 3039 3040 3040 3039 3040 3040 3039 3040 3041 3039 3039 3039 3038 3038 3038 3038 3039 3041 3043 3045 3046 3046 3046 3046 3048 3050 3052 3053 3053 3055 3055 3055 3056 3059 3060 3061 3062 3063 3064 3065 3067 3070 3070 3071 3073 3074 3075 3077 3078 3078 3080 3080 3081 3082 3084 3086 3085 3085 3088 3089 3091 3095 3095 3098 3101 3096 3094 3100 3097 3091 3098
3046 3045 3044 3042 3041 3040 3039 3038 3038 3037 3037 3036 3036 3035 3035 3035 3035 3036 3036 3035 3035 3035 3035 3037 3037 3036 3036 3035 3034 3034 3033 3034 3035 3037 3038 3041 3042 3042 3042 3043 3044 3045 3048 3049 3049 3051 3051 3052 3053 3055 3056 3058 3059 3060 3061 3063 3065 3065 3065 3066 3067 3069 3071 3072 3072 3071 3072 3073 3072 3073 3077 3081 3081 3082 3083 3085 3087 3090 3091 3094 3093 3087 3089 3095 3090 3088 3098
3042 3041 3039 3038 3037 3036 3035 3034 3034 3033 3033 3033 3032 3031 3031 3031 3031 3032 3033 3032 3031 3030 3032 3032 3032 3032 3032 3030 3029 3030 3030 3031 3032 3032 3033 3035 3038 3039 3039 3039 3040 3041 3043 3045 3045 3047 3048 3049 3050 3051 3053 3056 3057 3057 3058 3059 3061 3061 3062 3063 3065 3067 3067 3068 3067 3066 3066 3068 3069 3072 3074 3076 3077 3078 3080 3081 3083 3085 3087 3087 3083 3082 3088 3090 3086 3090 3097
3037 3036 3035 3034 3033 3032 3030 3030 3029 3029 3028 3029 3028 3028 3028 3028 3028 3029 3029 3028 3027 3028 3029 3029 3028 3028 3028 3026 3026 3027 3027 3028 3029 3029 3029 3031 3033 3035 3035 3035 3036 3037 3039 3041 3042 3043 3044 3045 3046 3048 3050 3053 3054 3054 3054 3056 3058 3058 3060 3062 3063 3064 3063 3063 3065 3065 3065 3067 3069 3071 3072 3072 3073 3075 3076 3078 3080 3082 3082 3078 3078 3082 3085 3082 3084 3091 3094
3033 3032 3031 3030 3029 3028 3027 3026 3025 3024 3024 3025 3024 3024 3024 3024 3024 3025 3025 3024 3024 3024 3024 3023 3022 3022 3022 3022 3022 3023 3023 3025 3026 3026 3026 3028 3030 3031 3030 3031 3032 3034 3036 3038 3038 3040 3041 3041 3042 3044 3047 3049 3050 3051 3052 3054 3055 3057 3059 3059 3060 3061 3060 3060 3062 3062 3063 3065 3067 3068 3069 3069 3071 3072 3072 3074 3076 3077 3076 3074 3077 3081 3079 3077 3084 3088 3088
3028 3027 3027 3026 3025 3024 3024 3023 3022 3021 3021 3021 3021 3020 3020 3020 3020 3021 3021 3020 3019 3020 3019 3019 3019 3019 3019 3018 3019 3020 3020 3021 3023 3024 3024 3025 3026 3027 3026 3027 3029 3031 3033 3034 3035 3036 3037 3037 3039 3041 3043 3045 3047 3048 3050 3051 3052 3054 3056 3056 3057 3057 3057 3058 3060 3060 3060 3062 3063 3064 3065 3066 3067 3068 3069 3071 3071 3072 3073 3073 3075 3077 3076 3077 3083 3083 3083
3024 3023 3022 3022 3021 3021 3020 3020 3019 3019 3018 3018 3018 3017 3017 3017 3017 3016 3016 3015 3015 3016 3016 3016 3015 3015 3016 3015 3015 3017 3017 3018 3019 3020 3020 3021 3022 3024 3025 3026 3027 3028 3029 3030 3031 3032 3034 3034 3036 3037 3039 3041 3043 3045 3046 3048 3049 3051 3052 3053 3054 3054 3054 3055 3057 3057 3056 3057 3059 3060 3061 3061 3062 3063 3065 3067 3067 3068 3068 3069 3072 3073 3073 3076 3080 3078 3078
3020 3019 3018 3018 3017 3017 3016 3016 3016 3016 3015 3015 3015 3014 3014 3013 3012 3012 3011 3011 3012 3012 3012 3012 3011 3011 3012 3012 3013 3014 3014 3015 3014 3014 3015 3017 3019 3020 3021 3021 3022 3022 3024 3026 3028 3029 3030 3031 3032 3033 3034 3037 3039 3040 3042 3044 3046 3048 3049 3049 3050 3051 3052 3053 3055 3053 3052 3053 3055 3056 3057 3058 3057 3057 3059 3061 3062 3063 3063 3064 3066 3068 3069 3072 3074 3071 3072
3017 3016 3015 3014 3013 3013 3013 3013 3013 3012 3012 3011 3011 3011 3011 3009 3009 3009 3008 3006 3007 3008 3008 3009 3008 3007 3009 3010 3010 3010 3010 3011 3010 3010 3012 3014 3015 3015 3014 3014 3016 3018 3021 3023 3023 3023 3024 3024 3026 3028 3029 3031 3034 3035 3037 3039 3042 3044 3045 3046 3047 3049 3050 3051 3051 3050 3049 3051 3052 3052 3055 3054 3049 3049 3053 3056 3057 3059 3059 3060 3061 3063 3065 3066 3066 3065 3069
3013 3012 3011 3010 3010 3009 3009 3008 3008 3008 3008 3008 3008 3007 3008 3007 3006 3006 3005 3003 3003 3005 3005 3005 3005 3005 3006 3006 3006 3006 3006 3007 3007 3008 3008 3009 3010 3011 3011 3012 3014 3016 3017 3018 3017 3017 3018 3020 3022 3024 3026 3028 3030 3032 3034 3035 3037 3040 3042 3043 3045 3046 3047 3048 3048 3048 3049 3050 3050 3051 3050 3045 3042 3045 3049 3050 3051 3053 3054 3055 3057 3059 3061 3061 3061 3064 3068
3010 3009 3008 3007 3006 3006 3005 3004 3004 3004 3004 3005 3004 3004 3004 3004 3003 3003 3003 3001 3000 3002 3002 3002 3002 3002 3002 3002 3002 3002 3003 3004 3004 3004 3004 3006 3008 3009 3009 3011 3012 3013 3013 3013 3013 3015 3017 3018 3020 3022 3023 3025 3026 3028 3030 3031 3033 3036 3038 3040 3041 3043 3044 3046 3046 3047 3047 3048 3050 3050 3045 3040 3041 3045 3045 3045 3047 3049 3050 3051 3053 3055 3057 3058 3060 3062 3064
3007 3006 3005 3004 3003 3002 3002 3001 3001 3000 3001 3001 3001 3001 3001 3001 3000 3000 3000 2998 2997 2998 2999 2998 2999 2999 2999 2999 2999 2999 2999 3000 3001 3001 3001 3003 3005 3006 3007 3007 3008 3009 3010 3010 3012 3014 3015 3016 3018 3019 3020 3022 3024 3025 3025 3027 3029 3032 3034 3036 3037 3039 3042 3044 3044 3045 3045 3045 3047 3046 3042 3040 3042 3042 3041 3043 3045 3046 3047 3047 3047 3050 3053 3054 3056 3059 3061
3003 3002 3002 3000 3000 2999 2998 2998 2997 2997 2997 2997 2997 2998 2998 2997 2997 2997 2998 2996 2994 2995 2996 2995 2995 2996 2996 2996 2996 2996 2996 2997 2998 2999 2999 3000 3002 3003 3004 3004 3005 3007 3008 3009 3011 3012 3013 3014 3015 3016 3017 3019 3020 3020 3021 3023 3025 3028 3030 3032 3034 3036 3039 3041 3041 3042 3042 3042 3041 3041 3041 3040 3040 3040 3039 3040 3041 3042 3043 3042 3042 3045 3048 3050 3052 3055 3058
3000 2999 2998 2997 2996 2995 2995 2994 2994 2993 2993 2993 2994 2994 2994 2994 2994 2994 2994 2993 2992 2992 2993 2992 2994 2995 2994 2993 2993 2994 2994 2995 2996 2996 2997 2997 2998 3000 3001 3002 3003 3005 3007 3008 3009 3010 3011 3012 3012 3011 3012 3013 3013 3014 3016 3019 3021 3023 3026 3029 3031 3033 3035 3037 3038 3039 3040 3040 3039 3040 3040 3038 3037 3037 3036 3037 3038 3038 3039 3039 3039 3041 3043 3045 3048 3050 3052
2996 2995 2995 2994 2993 2992 2992 2991 2991 2990 2990 2990 2990 2991 2991 2991 2992 2991 2991 2991 2990 2989 2990 2990 2991 2991 2990 2990 2991 2992 2992 2993 2994 2994 2995 2995 2996 2997 2998 2999 3000 3003 3004 3005 3006 3007 3008 3008 3007 3007 3006 3007 3008 3009 3011 3014 3017 3020 3023 3026 3027 3029 3031 3034 3035 3036 3036 3036 3037 3039 3039 3036 3035 3035 3034 3035 3035 3035 3037 3037 3034 3036 3039 3041 3043 3045 3048
2993 2992 2991 2990 2990 2989 2989 2988 2987 2987 2987 2987 2987 2988 2988 2988 2989 2989 2989 2988 2987 2986 2987 2988 2988 2988 2987 2987 2989 2990 2991 2991 2991 2991 2992 2993 2993 2994 2996 2997 2998 3000 3002 3003 3003 3004 3004 3004 3004 3003 3003 3004 3005 3006 3007 3009 3012 3015 3018 3020 3023 3025 3027 3029 3031 3031 3032 3033 3034 3037 3037 3035 3033 3033 3033 3033 3033 3034 3035 3033 3029 3031 3034 3036 3039 3041 3043
2989 2989 2988 2988 2987 2986 2986 2985 2984 2984 2984 2984 2984 2985 2985 2985 2986 2986 2986 2985 2984 2983 2985 2987 2986 2986 2986 2986 2986 2987 2988 2988 2989 2989 2989 2990 2991 2992 2993 2995 2996 2998 2999 3000 3000 3000 3000 3000 3000 3000 3000 3001 3002 3003 3003 3005 3007 3010 3012 3015 3018 3021 3022 3024 3026 3027 3028 3029 3030 3032 3032 3031 3031 3031 3031 3031 3032 3032 3030 3028 3027 3028 3030 3031 3035 3038 3039
2986 2986 2986 2985 2984 2983 2983 2982 2982 2981 2981 2981 2982 2982 2983 2983 2983 2983 2983 2983 2982 2981 2982 2984 2984 2983 2984 2984 2983 2984 2985 2986 2987 2987 2988 2990 2990 2989 2991 2993 2994 2995 2996 2996 2996 2997 2997 2997 2997 2998 2999 2999 2999 2999 3000 3001 3003 3005 3008 3011 3013 3015 3017 3020 3021 3023 3024 3026 3027 3028 3027 3026 3027 3029 3030 3030 3030 3028 3025 3023 3024 3025 3026 3028 3031 3033 3035
2983 2983 2983 2982 2982 2981 2980 2980 2979 2979 2979 2979 2979 2979 2980 2980 2980 2980 2980 2980 2980 2978 2979 2981 2980 2979 2980 2981 2981 2982 2983 2984 2985 2986 2987 2988 2988 2988 2989 2990 2991 2992 2993 2993 2993 2994 2994 2994 2995 2996 2996 2996 2996 2997 2997 2998 2999 3001 3003 3006 3008 3010 3012 3014 3015 3017 3020 3022 3023 3023 3022 3020 3023 3027 3028 3028 3027 3024 3021 3021 3022 3022 3023 3025 3026 3027 3031
2980 2980 2980 2980 2979 2978 2978 2977 2977 2976 2976 2976 2976 2977 2977 2978 2978 2978 2978 2978 2978 2976 2976 2977 2977 2976 2976 2977 2977 2978 2979 2980 2982 2983 2984 2984 2984 2985 2986 2986 2987 2988 2989 2990 2990 2991 2992 2992 2992 2993 2992 2992 2993 2993 2994 2996 2997 2998 3000 3003 3005 3005 3007 3008 3010 3013 3015 3016 3016 3015 3015 3017 3021 3025 3026 3025 3023 3021 3019 3019 3019 3019 3020 3021 3022 3023 3025
2978 2978 2977 2977 2977 2976 2975 2975 2974 2974 2974 2974 2974 2975 2975 2976 2976 2976 2976 2976 2975 2973 2973 2974 2973 2973 2973 2973 2974 2974 2975 2976 2977 2978 2979 2980 2981 2982 2983 2983 2984 2985 2986 2986 2987 2988 2989 2989 2989 2990 2991 2991 2990 2990 2991 2994 2995 2995 2997 3000 3001 3002 3003 3005 3007 3008 3009 3010 3010 3011 3013 3016 3019 3022 3023 3022 3021 3020 3019 3018 3017 3017 3018 3019 3020 3021 3022
2976 2975 2975 2975 2974 2974 2973 2972 2972 2972 2972 2972 2973 2973 2974 2974 2974 2974 2974 2973 2972 2971 2970 2970 2970 2969 2970 2971 2971 2971 2971 2971 2972 2974 2976 2977 2978 2979 2980 2981 2982 2983 2983 2984 2984 2985 2987 2987 2987 2988 2989 2989 2989 2988 2988 2989 2990 2992 2994 2996 2997 2998 3000 3002 3004 3005 3007 3008 3009 3010 3011 3013 3017 3021 3021 3020 3019 3018 3017 3016 3016 3016 3017 3017 3019 3020 3021
2974 2974 2973 2973 2972 2971 2971 2970 2970 2970 2970 2971 2971 2972 2972 2972 2972 2972 2972 2971 2970 2969 2968 2968 2967 2967 2967 2968 2968 2967 2967 2968 2970 2972 2973 2974 2975 2977 2978 2979 2980 2981 2982 2982 2983 2984 2985 2985 2986 2987 2987 2987 2987 2986 2986 2986 2988 2989 2991 2993 2995 2995 2998 3000 3002 3004 3006 3008 3008 3008 3010 3012 3016 3020 3021 3019 3018 3017 3016 3016 3016 3016 3017 3018 3020 3022 3024
2972 2972 2971 2971 2970 2970 2969 2969 2969 2969 2969 2969 2970 2970 2970 2970 2971 2970 2970 2970 2969 2968 2966 2965 2965 2965 2964 2965 2965 2965 2965 2967 2968 2970 2971 2973 2976 2977 2977 2977 2978 2979 2980 2981 2982 2983 2983 2984 2984 2984 2985 2985 2986 2986 2985 2986 2987 2988 2990 2992 2993 2995 2997 3000 3001 3003 3006 3007 3006 3007 3009 3011 3014 3018 3019 3018 3017 3016 3016 3016 3017 3018 3020 3022 3024 3026 3027
2971 2970 2970 2969 2969 2968 2968 2967 2967 2967 2968 2968 2968 2968 2969 2969 2969 2969 2969 2968 2968 2967 2964 2963 2963 2963 2963 2963 2963 2963 2964 2965 2967 2970 2971 2973 2975 2976 2976 2976 2978 2978 2979 2980 2981 2982 2983 2982 2982 2982 2983 2983 2984 2985 2984 2985 2987 2988 2988 2989 2991 2994 2997 2999 3000 3003 3005 3005 3005 3007 3008 3010 3012 3014 3015 3015 3015 3016 3015 3016 3016 3018 3021 3025 3028 3029 3029
2970 2969 2969 2968 2967 2967 2966 2966 2966 2966 2966 2967 2967 2967 2967 2967 2967 2967 2967 2967 2966 2965 2963 2961 2962 2962 2961 2961 2962 2962 2963 2965 2967 2969 2971 2972 2974 2975 2976 2977 2978 2978 2979 2980 2980 2981 2982 2981 2981 2981 2981 2982 2983 2984 2985 2986 2987 2987 2987 2988 2991 2994 2995 2997 3000 3002 3003 3004 3005 3006 3008 3010 3012 3012 3012 3013 3013 3015 3016 3017 3017 3019 3021 3025 3028 3030 3030
2969 2968 2967 2967 2966 2966 2966 2965 2965 2965 2966 2966 2966 2966 2966 2966 2965 2965 2965 2964 2965 2964 2962 2961 2960 2960 2960 2960 2961 2961 2963 2965 2966 2968 2970 2972 2973 2975 2976 2977 2978 2979 2979 2979 2980 2980 2981 2980 2980 2980 2981 2982 2983 2984 2984 2986 2986 2986 2987 2988 2991 2992 2994 2996 2999 3001 3002 3004 3005 3006 3008 3010 3011 3012 3012 3012 3012 3013 3015 3016 3018 3019 3021 3024 3027 3029 3031
2968 2967 2967 2966 2966 2965 2965 2965 2965 2965 2965 2965 2965 2965 2964 2964 2964 2964 2963 2963 2963 2962 2961 2960 2959 2959 2959 2959 2960 2961 2962 2964 2965 2967 2969 2972 2973 2974 2976 2977 2978 2979 2979 2979 2980 2980 2980 2979 2979 2978 2979 2980 2981 2983 2984 2985 2985 2987 2988 2989 2990 2992 2994 2995 2997 2999 3001 3003 3005 3006 3008 3009 3010 3012 3013 3012 3011 3011 3013 3015 3017 3018 3020 3024 3027 3029 3031
2967 2967 2966 2966 2965 2965 2965 2965 2964 2964 2964 2964 2964 2964 2964 2963 2963 2963 2962 2962 2961 2961 2960 2959 2958 2958 2958 2959 2959 2960 2962 2963 2965 2967 2969 2971 2973 2974 2976 2977 2977 2978 2978 2979 2980 2979 2979 2979 2979 2978 2978 2979 2980 2982 2983 2983 2984 2986 2988 2989 2990 2992 2993 2994 2996 2998 3000 3002 3004 3005 3007 3008 3010 3013 3015 3014 3013 3013 3015 3017 3019 3020 3022 3026 3029 3030 3031
2967 2966 2966 2965 2965 2965 2964 2964 2964 2963 2963 2963 2963 2963 2963 2963 2963 2963 2962 2962 2961 2960 2960 2959 2958 2957 2958 2959 2959 2960 2962 2963 2965 2967 2969 2971 2973 2974 2975 2976 2977 2978 2978 2979 2979 2979 2979 2980 2979 2977 2978 2979 2980 2981 2982 2982 2983 2985 2987 2988 2989 2990 2991 2993 2995 2997 2999 3001 3003 3004 3005 3007 3009 3012 3014 3015 3014 3015 3017 3019 3020 3021 3024 3026 3029 3030 3031
2966 2966 2966 2965 2965 2964 2964 2963 2963 2962 2962 2962 2962 2963 2963 2963 2963 2963 2962 2961 2961 2960 2960 2959 2958 2958 2958 2959 2960 2961 2962 2964 2965 2966 2967 2970 2972 2974 2975 2976 2977 2978 2978 2979 2979 2979 2979 2981 2980 2979 2979 2979 2980 2980 2981 2981 2982 2984 2985 2987 2988 2989 2990 2992 2994 2996 2998 3000 3002 3003 3004 3006 3007 3009 3012 3014 3015 3016 3017 3018 3019 3021 3024 3025 3027 3028 3029
2966 2966 2965 2965 2964 2963 2963 2963 2962 2962 2962 2962 2962 2963 2963 2963 2963 2963 2962 2961 2961 2961 2960 2959 2958 2958 2958 2959 2960 2961 2962 2964 2965 2966 2967 2969 2972 2973 2975 2976 2977 2978 2979 2979 2979 2980 2980 2981 2981 2981 2980 2980 2980 2980 2981 2981 2982 2984 2985 2986 2987 2988 2989 2992 2994 2995 2996 2998 3000 3001 3004 3006 3007 3008 3011 3014 3016 3017 3016 3017 3019 3020 3022 3024 3025 3026 3026
2967 2966 2965 2965 2964 2964 2963 2963 2962 2962 2962 2963 2963 2964 2964 2964 2963 2963 2963 2962 2961 2961 2960 2960 2959 2959 2959 2959 2960 2962 2963 2964 2965 2966 2967 2969 2971 2973 2974 2976 2977 2978 2979 2979 2979 2980 2981 2981 2982 2982 2981 2981 2981 2981 2981 2982 2983 2984 2985 2985 2986 2987 2989 2991 2992 2993 2995 2997 2999 3001 3004 3006 3007 3008 3010 3013 3015 3016 3017 3018 3019 3019 3020 3021 3023 3024 3025
2968 2967 2966 2965 2965 2964 2964 2963 2963 2963 2963 2964 2964 2964 2964 2964 2964 2964 2963 2962 2962 2962 2961 2960 2960 2959 2959 2960 2961 2963 2963 2964 2965 2966 2967 2969 2971 2973 2974 2975 2977 2978 2979 2979 2980 2980 2981 2981 2982 2982 2982 2982 2982 2982 2982 2983 2984 2984 2985 2986 2987 2988 2989 2991 2992 2993 2994 2996 2998 3001 3003 3006 3007 3008 3010 3012 3014 3015 3017 3018 3018 3018 3019 3020 3022 3023 3024
2969 2968 2967 2967 2966 2965 2965 2964 2964 2964 2965 2965 2965 2965 2965 2965 2965 2964 2964 2963 2963 2962 2962 2961 2960 2960 2959 2959 2961 2963 2963 2964 2966 2967 2968 2970 2972 2973 2974 2975 2976 2978 2979 2979 2980 2980 2981 2981 2982 2983 2983 2982 2982 2982 2982 2983 2985 2986 2987 2988 2989 2990 2991 2992 2993 2994 2995 2996 2998 3000 3002 3005 3007 3009 3010 3012 3013 3014 3016 3017 3018 3018 3020 3022 3023 3024 3024
2971 2970 2969 2969 2968 2967 2967 2966 2966 2966 2966 2966 2966 2966 2966 2966 2965 2965 2964 2964 2963 2963 2963 2962 2961 2960 2960 2960 2961 2963 2963 2965 2967 2968 2969 2971 2973 2973 2974 2976 2977 2978 2979 2979 2980 2981 2981 2982 2983 2983 2983 2983 2983 2983 2984 2985 2987 2989 2990 2991 2992 2993 2994 2994 2995 2997 2998 2999 3000 3002 3003 3005 3007 3009 3010 3011 3013 3014 3016 3017 3017 3019 3021 3022 3023 3024 3024
2972 2972 2971 2970 2970 2969 2969 2969 2968 2968 2967 2967 2967 2967 2967 2967 2966 2966 2965 2965 2964 2964 2964 2963 2962 2961 2961 2961 2962 2963 2964 2965 2967 2969 2970 2972 2973 2974 2976 2977 2978 2978 2978 2979 2979 2980 2981 2982 2983 2983 2984 2984 2984 2984 2985 2987 2989 2991 2992 2993 2994 2995 2996 2997 2998 3000 3001 3002 3003 3004 3006 3007 3008 3010 3011 3012 3013 3015 3017 3017 3018 3019 3021 3021 3022 3022 3023
2974 2973 2973 2972 2972 2971 2971 2970 2970 2969 2969 2968 2968 2968 2968 2968 2968 2967 2967 2966 2966 2965 2965 2964 2963 2963 2963 2963 2963 2964 2965 2966 2967 2969 2970 2972 2973 2975 2976 2977 2977 2977 2978 2980 2980 2980 2981 2983 2984 2985 2985 2986 2987 2987 2988 2990 2992 2993 2994 2995 2996 2997 2998 2999 3000 3002 3004 3005 3006 3007 3008 3009 3010 3011 3012 3013 3014 3015 3016 3017 3018 3019 3020 3020 3020 3020 3021
2976 2975 2974 2974 2974 2973 2973 2972 2971 2971 2970 2970 2970 2970 2970 2970 2969 2969 2968 2968 2968 2967 2967 2966 2966 2965 2965 2965 2965 2965 2965 2966 2967 2968 2970 2972 2973 2974 2976 2977 2976 2977 2979 2981 2981 2981 2982 2984 2985 2986 2988 2989 2990 2990 2991 2993 2994 2996 2997 2998 2999 2999 3000 3002 3003 3005 3006 3007 3009 3010 3010 3011 3011 3012 3012 3013 3014 3014 3015 3015 3016 3017 3018 3018 3018 3018 3018
2978 2977 2977 2976 2976 2975 2974 2974 2973 2973 2972 2972 2971 2971 2971 2971 2970 2970 2970 2970 2970 2970 2969 2968 2968 2967 2966 2966 2966 2966 2967 2968 2968 2969 2971 2973 2973 2974 2976 2977 2976 2977 2980 2981 2981 2982 2983 2985 2987 2988 2990 2991 2992 2993 2994 2995 2997 2998 2999 3000 3001 3003 3004 3005 3007 3008 3009 3010 3011 3011 3012 3012 3013 3013 3013 3013 3014 3014 3014 3014 3015 3015 3015 3015 3014 3014 3015
2981 2980 2979 2978 2977 2977 2976 2975 2975 2974 2974 2973 2973 2972 2972 2972 2972 2971 2971 2971 2971 2971 2970 2969 2969 2968 2967 2967 2967 2968 2968 2970 2970 2971 2973 2974 2974 2974 2976 2978 2978 2978 2980 2981 2981 2982 2984 2986 2988 2990 2992 2993 2994 2995 2996 2997 2999 3000 3001 3003 3004 3005 3006 3008 3009 3010 3011 3012 3013 3013 3013 3013 3013 3014 3014 3014 3014 3015 3015 3015 3014 3014 3014 3013 3013 3012 3012
2983 2982 2981 2980 2979 2978 2978 2977 2977 2976 2975 2975 2975 2974 2974 2974 2973 2973 2973 2972 2972 2972 2971 2971 2970 2969 2969 2969 2969 2970 2971 2971 2972 2972 2973 2974 2975 2975 2977 2978 2979 2980 2980 2981 2982 2983 2985 2987 2989 2991 2993 2995 2996 2997 2997 2999 3001 3002 3003 3004 3006 3006 3008 3009 3010 3011 3012 3013 3013 3013 3013 3013 3013 3013 3013 3013 3014 3014 3014 3014 3014 3014 3013 3012 3012 3012 3011
2985 2984 2983 2982 2980 2979 2979 2979 2978 2978 2977 2977 2976 2976 2976 2976 2975 2974 2974 2973 2973 2973 2973 2972 2971 2971 2971 2971 2971 2972 2973 2973 2974 2974 2974 2975 2976 2977 2977 2979 2980 2981 2981 2982 2983 2985 2987 2989 2992 2994 2995 2997 2998 2999 3000 3001 3003 3004 3005 3006 3007 3008 3008 3009 3010 3011 3011 3012 3013 3013 3013 3013 3013 3013 3012 3012 3012 3012 3012 3012 3012 3012 3011 3011 3011 3010 3010
2987 2986 2984 2983 2981 2980 2980 2980 2980 2980 2979 2979 2978 2978 2978 2978 2977 2976 2975 2975 2975 2974 2974 2972 2972 2972 2973 2973 2973 2974 2975 2975 2975 2976 2976 2977 2978 2978 2979 2980 2981 2982 2983 2984 2986 2988 2990 2992 2994 2996 2997 2998 3000 3001 3003 3004 3004 3005 3006 3007 3007 3008 3009 3009 3010 3011 3011 3011 3012 3012 3012 3012 3012 3012 3012 3012 3011 3011 3011 3011 3011 3010 3010 3010 3009 3009 3010
2990 2989 2987 2985 2983 2982 2982 2982 2983 2982 2981 2981 2981 2980 2980 2979 2978 2978 2978 2977 2977 2976 2975 2973 2973 2974 2975 2974 2975 2976 2977 2977 2978 2978 2978 2978 2979 2980 2980 2981 2983 2984 2985 2987 2988 2990 2992 2994 2995 2997 2999 3000 3002 3003 3004 3005 3005 3006 3007 3007 3008 3008 3009 3009 3010 3010 3011 3011 3011 3012 3012 3012 3012 3012 3012 3011 3011 3011 3011 3011 3010 3010 3010 3009 3009 3009 3009
2993 2991 2990 2988 2987 2986 2986 2986 2985 2984 2983 2983 2983 2982 2982 2981 2980 2980 2979 2978 2978 2977 2976 2976 2976 2976 2977 2976 2977 2978 2978 2979 2979 2979 2979 2979 2980 2981 2982 2983 2984 2986 2987 2989 2991 2992 2994 2996 2997 2999 3000 3002 3003 3005 3006 3006 3007 3008 3008 3009 3009 3010 3010 3010 3011 3011 3011 3012 3012 3012 3012 3012 3012 3012 3012 3011 3011 3011 3011 3011 3011 3010 3010 3010 3009 3009 3009
2995 2994 2992 2991 2991 2991 2990 2989 2988 2987 2986 2986 2985 2984 2984 2983 2982 2981 2980 2980 2979 2979 2978 2978 2978 2978 2978 2978 2978 2979 2980 2980 2980 2981 2981 2981 2981 2983 2984 2985 2986 2988 2990 2992 2993 2995 2997 2998 3000 3001 3002 3004 3005 3006 3007 3008 3009 3010 3010 3011 3011 3011 3011 3012 3012 3012 3013 3013 3013 3013 3013 3013 3013 3012 3012 3012 3012 3011 3011 3011 3011 3011 3010 3010 3010 3009 3009
2998 2996 2995 2995 2995 2994 2993 2992 2991 2991 2990 2989 2988 2987 2986 2985 2984 2983 2983 2983 2982 2981 2981 2980 2979 2979 2979 2980 2980 2981 2981 2982 2982 2982 2982 2982 2983 2984 2986 2987 2989 2991 2993 2994 2996 2997 2999 3001 3002 3003 3005 3006 3007 3008 3009 3010 3010 3011 3012 3012 3013 3013 3013 3013 3013 3013 3013 3013 3013 3013 3013 3013 3013 3013 3012 3012 3012 3012 3012 3012 3011 3011 3011 3010 3010 3010 3009
3001 2999 2998 2998 2998 2997 2996 2995 2994 2994 2993 2992 2991 2990 2989 2988 2987 2986 2986 2985 2984 2984 2983 2982 2981 2980 2980 2981 2982 2983 2983 2983 2984 2984 2984 2984 2985 2986 2988 2989 2991 2993 2995 2997 2998 2999 3001 3003 3004 3005 3006 3008 3009 3010 3010 3011 3012 3013 3013 3014 3014 3014 3015 3015 3014 3014 3014 3014 3013 3013 3013 3013 3013 3013 3013 3013 3013 3012 3012 3012 3011 3011 3011 3010 3010 3010 3009
3003 3002 3002 3001 3001 3000 2999 2998 2997 2996 2995 2994 2993 2992 2991 2990 2989 2989 2988 2988 2987 2986 2985 2984 2984 2983 2982 2981 2983 2984 2985 2986 2987 2987 2987 2987 2988 2989 2990 2992 2994 2995 2997 2998 3000 3001 3003 3004 3005 3006 3007 3009 3010 3011 3012 3012 3013 3014 3014 3015 3015 3015 3015 3015 3015 3015 3014 3014 3013 3013 3013 3013 3013 3013 3013 3013 3013 3012 3012 3011 3011 3011 3010 3010 3010 3010 3009
3005 3005 3004 3004 3004 3003 3002 3001 3000 2999 2998 2997 2996 2995 2994 2993 2992 2991 2991 2990 2990 2989 2988 2988 2988 2987 2985 2985 2986 2987 2988 2989 2990 2991 2990 2990 2991 2993 2994 2996 2998 2999 3000 3001 3002 3004 3005 3006 3007 3008 3009 3010 3011 3012 3013 3014 3015 3015 3015 3016 3016 3016 3016 3016 3015 3015 3015 3014 3014 3013 3013 3013 3013 3013 3013 3013 3012 3012 3011 3011 3011 3010 3010 3010 3010 3009 3009